Location: Unspecified
(50.7218°N, 3.5336°W)
Time: 01:42:33
(UTC+01:00)

ISS - Visible Passes

Search period start: 21 January 2018 00:00
Search period end: 31 January 2018 00:00
Orbit: 402 x 407 km, 51.6° (Epoch: 21 January)

Date Brightness Start Highest point End Pass type
(mag) Time Alt. Az. Time Alt. Az. Time Alt. Az.
25 Jan -1.2 19:46:16 10° SSE 19:46:19 10° SSE 19:46:19 10° SSE visible
26 Jan -1.3 20:28:11 10° SW 20:29:07 16° SSW 20:29:07 16° SSW visible
27 Jan -2.3 19:36:24 10° SSW 19:38:58 22° SE 19:39:08 22° SE visible
28 Jan -1.6 18:45:04 10° S 18:46:50 14° SE 18:48:36 10° ESE visible
28 Jan -2.5 20:19:35 10° SW 20:21:45 36° SW 20:21:45 36° SW visible
29 Jan -3.0 19:27:26 10° SW 19:30:30 37° SSE 19:31:38 27° ESE visible
29 Jan -0.8 21:03:33 10° W 21:04:17 16° W 21:04:17 16° W visible
30 Jan -2.3 18:35:30 10° SSW 18:38:15 25° SE 18:40:59 10° E visible
30 Jan -3.6 20:11:09 10° WSW 20:14:06 69° WSW 20:14:06 69° WSW visible
